Time,TemperatureF,DewpointF,PressureIn,WindDirection,WindDirectionDegrees,WindSpeedMPH,WindSpeedGustMPH,Humidity,HourlyPrecipIn,Conditions,Clouds,dailyrainin,SoftwareType,DateUTC
2013-03-09 00:01:00,26.6,15.4,30.25,SE,139,5.4,8.1,62,0.00,,---,0.00,VWS V12.08,2013-03-09 06:01:00,
2013-03-09 00:06:00,26.8,14.8,30.25,SE,126,4.9,7.6,60,0.00,,---,0.00,VWS V12.08,2013-03-09 06:06:00,
2013-03-09 00:11:00,26.8,14.4,30.25,SE,125,2.2,7.6,59,0.00,,---,0.00,VWS V12.08,2013-03-09 06:11:00,
2013-03-09 00:16:00,26.8,14.4,30.25,SE,138,6.3,7.6,59,0.00,,---,0.00,VWS V12.08,2013-03-09 06:16:00,
2013-03-09 00:21:00,26.6,13.8,30.25,SE,140,3.6,5.8,58,0.00,,---,0.00,VWS V12.08,2013-03-09 06:21:00,
2013-03-09 00:26:00,26.2,13.5,30.25,SSE,153,4.0,5.8,58,0.00,,---,0.00,VWS V12.08,2013-03-09 06:26:00,
2013-03-09 00:31:00,26.1,13.3,30.25,SSE,156,4.0,5.8,58,0.00,,---,0.00,VWS V12.08,2013-03-09 06:31:00,
2013-03-09 00:36:00,26.2,14.6,30.25,SSE,150,5.4,5.4,61,0.00,,---,0.00,VWS V12.08,2013-03-09 06:36:00,
2013-03-09 00:41:00,26.1,14.1,30.25,SE,136,5.8,6.3,60,0.00,,---,0.00,VWS V12.08,2013-03-09 06:41:00,
2013-03-09 00:46:00,26.1,14.1,30.25,SE,136,5.4,6.3,60,0.00,,---,0.00,VWS V12.08,2013-03-09 06:46:00,
2013-03-09 00:51:00,26.2,14.6,30.25,SE,135,5.4,6.3,61,0.00,,---,0.00,VWS V12.08,2013-03-09 06:51:00,
2013-03-09 00:56:00,26.1,14.1,30.25,SE,130,5.8,6.3,60,0.00,,---,0.00,VWS V12.08,2013-03-09 06:56:00,
2013-03-09 01:01:00,26.1,14.5,30.25,SE,133,5.8,6.3,61,0.00,,---,0.00,VWS V12.08,2013-03-09 07:01:00,
2013-03-09 01:06:00,26.1,13.7,30.25,SSE,149,5.4,7.6,59,0.00,,---,0.00,VWS V12.08,2013-03-09 07:06:00,
2013-03-09 01:11:00,26.1,13.7,30.25,SE,143,7.2,7.6,59,0.00,,---,0.00,VWS V12.08,2013-03-09 07:11:00,
2013-03-09 01:16:00,25.9,13.5,30.22,SE,137,6.3,7.6,59,0.00,,---,0.00,VWS V12.08,2013-03-09 07:16:00,
2013-03-09 01:21:00,27.0,14.6,30.22,SE,142,3.1,7.6,59,0.00,,---,0.00,VWS V12.08,2013-03-09 07:21:00,
2013-03-09 01:26:00,27.7,14.0,30.22,ENE,59,3.6,7.6,56,0.00,,---,0.00,VWS V12.08,2013-03-09 07:26:00,
2013-03-09 01:31:00,27.5,13.1,30.22,SE,143,5.4,7.6,54,0.00,,---,0.00,VWS V12.08,2013-03-09 07:31:00,
2013-03-09 01:36:00,27.1,12.3,30.22,SE,143,4.0,6.3,53,0.00,,---,0.00,VWS V12.08,2013-03-09 07:36:00,
2013-03-09 01:41:00,27.0,12.1,30.22,SE,143,3.1,6.3,53,0.00,,---,0.00,VWS V12.08,2013-03-09 07:41:00,
2013-03-09 01:46:00,27.0,12.6,30.22,SE,143,2.7,6.3,54,0.00,,---,0.00,VWS V12.08,2013-03-09 07:46:00,
2013-03-09 01:51:00,26.8,12.4,30.22,SSE,159,3.6,4.0,54,0.00,,---,0.00,VWS V12.08,2013-03-09 07:51:00,
2013-03-09 01:56:00,26.8,12.8,30.22,SSE,159,4.0,4.5,55,0.00,,---,0.00,VWS V12.08,2013-03-09 07:56:00,
2013-03-09 02:01:00,26.6,13.0,30.22,SSE,159,2.7,4.5,56,0.00,,---,0.00,VWS V12.08,2013-03-09 08:01:00,
2013-03-09 02:06:00,26.6,13.0,30.22,SSE,159,0.0,2.7,56,0.00,,---,0.00,VWS V12.08,2013-03-09 08:06:00,
2013-03-09 02:11:00,26.6,13.0,30.22,South,178,3.6,3.6,56,0.00,,---,0.00,VWS V12.08,2013-03-09 08:11:00,
2013-03-09 02:16:00,26.8,13.2,30.22,South,172,5.4,5.4,56,0.00,,---,0.00,VWS V12.08,2013-03-09 08:16:00,
2013-03-09 02:21:00,26.6,12.6,30.22,ESE,123,4.0,5.8,55,0.00,,---,0.00,VWS V12.08,2013-03-09 08:21:00,
2013-03-09 02:26:00,26.8,12.8,30.22,SE,124,2.7,5.8,55,0.00,,---,0.00,VWS V12.08,2013-03-09 08:26:00,
2013-03-09 02:31:00,27.0,13.0,30.19,SE,132,4.5,5.8,55,0.00,,---,0.00,VWS V12.08,2013-03-09 08:31:00,
2013-03-09 02:36:00,27.0,12.1,30.19,SE,140,3.6,5.4,53,0.00,,---,0.00,VWS V12.08,2013-03-09 08:36:00,
2013-03-09 02:41:00,26.6,11.8,30.19,SE,142,2.7,5.4,53,0.00,,---,0.00,VWS V12.08,2013-03-09 08:41:00,
2013-03-09 02:46:00,26.4,11.6,30.19,SE,139,3.6,5.4,53,0.00,,---,0.00,VWS V12.08,2013-03-09 08:46:00,
2013-03-09 02:51:00,26.4,12.0,30.19,SE,146,3.6,4.0,54,0.00,,---,0.00,VWS V12.08,2013-03-09 08:51:00,
2013-03-09 02:57:00,26.2,11.9,30.19,SSE,147,3.6,4.9,54,0.00,,---,0.00,VWS V12.08,2013-03-09 08:57:00,
2013-03-09 03:02:00,26.2,11.9,30.19,SSE,147,4.0,4.9,54,0.00,,---,0.00,VWS V12.08,2013-03-09 09:02:00,
2013-03-09 03:07:00,26.1,12.1,30.19,SE,143,5.4,5.8,55,0.00,,---,0.00,VWS V12.08,2013-03-09 09:07:00,
2013-03-09 03:12:00,26.1,12.1,30.19,SE,144,5.8,6.7,55,0.00,,---,0.00,VWS V12.08,2013-03-09 09:12:00,
2013-03-09 03:17:00,26.1,12.1,30.16,SE,132,6.3,6.3,55,0.00,,---,0.00,VWS V12.08,2013-03-09 09:17:00,
2013-03-09 03:22:00,26.2,12.3,30.16,SSE,150,5.4,7.6,55,0.00,,---,0.00,VWS V12.08,2013-03-09 09:22:00,
2013-03-09 03:27:00,26.1,12.1,30.16,SSE,155,5.8,7.6,55,0.00,,---,0.00,VWS V12.08,2013-03-09 09:27:00,
2013-03-09 03:32:00,26.2,13.1,30.16,SSE,158,5.8,7.6,57,0.00,,---,0.00,VWS V12.08,2013-03-09 09:32:00,
2013-03-09 03:37:00,26.6,13.4,30.16,SSE,160,5.4,6.3,57,0.00,,---,0.00,VWS V12.08,2013-03-09 09:37:00,
2013-03-09 03:42:00,27.0,13.4,30.16,South,173,5.4,6.3,56,0.00,,---,0.00,VWS V12.08,2013-03-09 09:42:00,
2013-03-09 03:47:00,27.0,12.6,30.16,SSE,162,6.3,6.3,54,0.00,,---,0.00,VWS V12.08,2013-03-09 09:47:00,
2013-03-09 03:52:00,27.7,12.8,30.16,SSE,160,6.3,8.1,53,0.00,,---,0.00,VWS V12.08,2013-03-09 09:52:00,
2013-03-09 03:57:00,27.7,12.4,30.16,SSE,155,6.3,8.3,52,0.00,,---,0.00,VWS V12.08,2013-03-09 09:57:00,
2013-03-09 04:02:00,27.9,13.0,30.16,SSE,153,6.3,6.3,53,0.00,,---,0.00,VWS V12.08,2013-03-09 10:02:00,
2013-03-09 04:07:00,27.9,13.4,30.16,SSE,147,6.3,7.6,54,0.00,,---,0.00,VWS V12.08,2013-03-09 10:07:00,
2013-03-09 04:12:00,28.0,13.1,30.16,SSE,163,5.8,7.6,53,0.00,,---,0.00,VWS V12.08,2013-03-09 10:12:00,
2013-03-09 04:17:00,28.2,13.7,30.16,SSE,153,8.1,8.1,54,0.00,,---,0.00,VWS V12.08,2013-03-09 10:17:00,
2013-03-09 04:22:00,28.4,13.9,30.16,SE,145,8.1,8.7,54,0.00,,---,0.00,VWS V12.08,2013-03-09 10:22:00,
2013-03-09 04:27:00,28.6,13.6,30.16,SE,137,8.3,8.7,53,0.00,,---,0.00,VWS V12.08,2013-03-09 10:27:00,
2013-03-09 04:32:00,29.3,13.4,30.16,SE,142,7.6,8.1,51,0.00,,---,0.00,VWS V12.08,2013-03-09 10:32:00,
2013-03-09 04:37:00,29.7,13.3,30.16,SSE,151,8.3,9.2,50,0.00,,---,0.00,VWS V12.08,2013-03-09 10:37:00,
2013-03-09 04:42:00,29.7,13.3,30.16,SSE,149,8.3,11.4,50,0.00,,---,0.00,VWS V12.08,2013-03-09 10:42:00,
2013-03-09 04:47:00,29.8,13.9,30.16,SE,140,8.1,8.1,51,0.00,,---,0.00,VWS V12.08,2013-03-09 10:47:00,
2013-03-09 04:52:00,30.0,13.6,30.16,SSE,162,10.1,10.5,50,0.00,,---,0.00,VWS V12.08,2013-03-09 10:52:00,
2013-03-09 04:57:00,30.2,13.8,30.16,SSE,156,12.8,12.8,50,0.00,,---,0.00,VWS V12.08,2013-03-09 10:57:00,
2013-03-09 05:02:00,30.2,14.3,30.16,SSE,150,10.1,10.1,51,0.00,,---,0.00,VWS V12.08,2013-03-09 11:02:00,
2013-03-09 05:07:00,30.4,13.5,30.16,SSE,158,10.5,11.4,49,0.00,,---,0.00,VWS V12.08,2013-03-09 11:07:00,
2013-03-09 05:12:00,30.4,14.4,30.16,SSE,153,8.3,11.4,51,0.00,,---,0.00,VWS V12.08,2013-03-09 11:12:00,
2013-03-09 05:17:00,30.2,14.7,30.16,SSE,150,10.1,11.0,52,0.00,,---,0.00,VWS V12.08,2013-03-09 11:17:00,
2013-03-09 05:22:00,30.4,14.9,30.16,SSE,150,10.1,11.0,52,0.00,,---,0.00,VWS V12.08,2013-03-09 11:22:00,
2013-03-09 05:27:00,30.6,14.6,30.16,SSE,150,8.3,11.0,51,0.00,,---,0.00,VWS V12.08,2013-03-09 11:27:00,
2013-03-09 05:32:00,30.9,14.9,30.16,SE,144,8.7,8.7,51,0.00,,---,0.00,VWS V12.08,2013-03-09 11:32:00,
2013-03-09 05:37:00,30.9,14.5,30.16,SSE,155,11.0,11.0,50,0.00,,---,0.00,VWS V12.08,2013-03-09 11:37:00,
2013-03-09 05:42:00,31.3,14.4,30.16,SSE,160,8.1,11.0,49,0.00,,---,0.00,VWS V12.08,2013-03-09 11:42:00,
2013-03-09 05:47:00,31.5,14.5,30.16,South,181,5.8,6.3,49,0.00,,---,0.00,VWS V12.08,2013-03-09 11:47:00,
2013-03-09 05:52:00,31.5,14.1,30.16,SSE,166,7.6,8.7,48,0.00,,---,0.00,VWS V12.08,2013-03-09 11:52:00,
2013-03-09 05:57:00,31.6,14.2,30.16,SSE,153,8.1,10.1,48,0.00,,---,0.00,VWS V12.08,2013-03-09 11:57:00,
2013-03-09 06:02:00,31.5,15.0,30.16,SSE,155,8.3,8.3,50,0.00,,---,0.00,VWS V12.08,2013-03-09 12:02:00,
2013-03-09 06:07:00,31.5,15.0,30.16,SSE,150,8.7,9.6,50,0.00,,---,0.00,VWS V12.08,2013-03-09 12:07:00,
2013-03-09 06:12:00,31.5,15.0,30.14,SE,146,8.3,10.5,50,0.00,,---,0.00,VWS V12.08,2013-03-09 12:12:00,
2013-03-09 06:17:00,31.6,15.1,30.14,South,180,6.3,6.3,50,0.00,,---,0.00,VWS V12.08,2013-03-09 12:17:00,
2013-03-09 06:22:00,31.8,14.9,30.14,SSE,150,7.6,8.3,49,0.00,,---,0.00,VWS V12.08,2013-03-09 12:22:00,
2013-03-09 06:28:00,32.0,14.6,30.16,SSE,155,8.1,8.3,48,0.00,,---,0.00,VWS V12.08,2013-03-09 12:28:00,
2013-03-09 06:33:00,32.0,15.5,30.16,SSE,155,5.4,6.3,50,0.00,,---,0.00,VWS V12.08,2013-03-09 12:33:00,
2013-03-09 06:38:00,31.8,15.3,30.16,SSE,149,6.7,8.7,50,0.00,,---,0.00,VWS V12.08,2013-03-09 12:38:00,
2013-03-09 06:43:00,32.0,15.0,30.14,SSE,158,7.6,8.7,49,0.00,,---,0.00,VWS V12.08,2013-03-09 12:43:00,
2013-03-09 06:48:00,32.0,16.4,30.14,SSE,149,7.6,7.6,52,0.00,,---,0.00,VWS V12.08,2013-03-09 12:48:00,
2013-03-09 06:53:00,32.0,16.4,30.14,SSE,148,7.6,8.7,52,0.00,,---,0.00,VWS V12.08,2013-03-09 12:53:00,
2013-03-09 06:58:00,32.0,15.9,30.14,SSE,149,8.7,10.1,51,0.00,,---,0.00,VWS V12.08,2013-03-09 12:58:00,
2013-03-09 07:03:00,32.0,16.4,30.14,SSE,151,9.6,10.5,52,0.00,,---,0.00,VWS V12.08,2013-03-09 13:03:00,
2013-03-09 07:08:00,32.2,16.1,30.14,SSE,158,9.2,11.0,51,0.00,,---,0.00,VWS V12.08,2013-03-09 13:08:00,
2013-03-09 07:13:00,32.4,16.7,30.14,SSE,157,8.3,11.0,52,0.00,,---,0.00,VWS V12.08,2013-03-09 13:13:00,
2013-03-09 07:18:00,32.4,16.7,30.14,SSE,157,7.6,8.3,52,0.00,,---,0.00,VWS V12.08,2013-03-09 13:18:00,
2013-03-09 07:23:00,32.5,15.5,30.14,SSE,157,7.6,8.7,49,0.00,,---,0.00,VWS V12.08,2013-03-09 13:23:00,
2013-03-09 07:28:00,32.7,16.1,30.14,SSE,164,8.1,8.7,50,0.00,,---,0.00,VWS V12.08,2013-03-09 13:28:00,
2013-03-09 07:33:00,32.7,16.6,30.14,SSE,161,6.3,8.1,51,0.00,,---,0.00,VWS V12.08,2013-03-09 13:33:00,
2013-03-09 07:38:00,33.1,16.5,30.14,SSE,163,5.4,8.3,50,0.00,,---,0.00,VWS V12.08,2013-03-09 13:38:00,
2013-03-09 07:43:00,33.1,16.5,30.14,SSE,158,7.6,8.3,50,0.00,,---,0.00,VWS V12.08,2013-03-09 13:43:00,
2013-03-09 07:48:00,33.4,16.4,30.14,South,178,6.3,9.6,49,0.00,,---,0.00,VWS V12.08,2013-03-09 13:48:00,
2013-03-09 07:53:00,33.6,17.0,30.14,SSE,167,8.1,9.6,50,0.00,,---,0.00,VWS V12.08,2013-03-09 13:53:00,
2013-03-09 07:58:00,33.6,17.0,30.14,SSE,156,8.1,9.6,50,0.00,,---,0.00,VWS V12.08,2013-03-09 13:58:00,
2013-03-09 08:03:00,33.8,16.7,30.14,South,172,5.8,8.1,49,0.00,,---,0.00,VWS V12.08,2013-03-09 14:03:00,
2013-03-09 08:08:00,34.2,17.0,30.14,SSE,163,8.3,8.3,49,0.00,,---,0.00,VWS V12.08,2013-03-09 14:08:00,
2013-03-09 08:13:00,34.5,17.3,30.14,SE,135,9.2,12.3,49,0.00,,---,0.00,VWS V12.08,2013-03-09 14:13:00,
2013-03-09 08:18:00,34.7,18.9,30.14,South,180,11.0,12.8,52,0.00,,---,0.00,VWS V12.08,2013-03-09 14:18:00,
2013-03-09 08:23:00,34.7,19.3,30.14,South,178,8.7,13.2,53,0.00,,---,0.00,VWS V12.08,2013-03-09 14:23:00,
2013-03-09 08:28:00,34.9,20.4,30.14,SSE,159,8.7,13.6,55,0.00,,---,0.00,VWS V12.08,2013-03-09 14:28:00,
2013-03-09 08:33:00,34.9,20.4,30.14,South,179,11.0,15.4,55,0.00,,---,0.00,VWS V12.08,2013-03-09 14:33:00,
2013-03-09 08:38:00,34.9,20.8,30.14,SSE,165,10.5,15.4,56,0.00,,---,0.00,VWS V12.08,2013-03-09 14:38:00,
2013-03-09 08:43:00,34.9,21.2,30.11,SSE,161,10.1,15.4,57,0.00,,---,0.00,VWS V12.08,2013-03-09 14:43:00,
2013-03-09 08:48:00,34.9,21.6,30.11,SSE,156,12.8,13.2,58,0.00,,---,0.00,VWS V12.08,2013-03-09 14:48:00,
2013-03-09 08:53:00,34.5,22.5,30.11,SSE,154,10.5,13.2,61,0.00,,---,0.00,VWS V12.08,2013-03-09 14:53:00,
2013-03-09 08:58:00,34.9,22.8,30.11,SSE,162,11.0,13.2,61,0.00,,---,0.00,VWS V12.08,2013-03-09 14:58:00,
2013-03-09 09:03:00,35.1,23.0,30.11,South,180,8.7,13.2,61,0.00,,---,0.00,VWS V12.08,2013-03-09 15:03:00,
2013-03-09 09:08:00,35.1,23.0,30.11,South,180,10.1,13.2,61,0.00,,---,0.00,VWS V12.08,2013-03-09 15:08:00,
2013-03-09 09:13:00,35.1,23.4,30.11,South,178,8.1,13.2,62,0.00,,---,0.00,VWS V12.08,2013-03-09 15:13:00,
2013-03-09 09:18:00,35.1,24.1,30.11,SSE,150,8.3,10.1,64,0.00,,---,0.00,VWS V12.08,2013-03-09 15:18:00,
2013-03-09 09:23:00,34.7,25.2,30.11,SE,146,7.6,11.0,68,0.00,,---,0.00,VWS V12.08,2013-03-09 15:23:00,
2013-03-09 09:28:00,34.7,26.3,30.08,SE,146,8.7,11.0,71,0.00,,---,0.00,VWS V12.08,2013-03-09 15:28:00,
2013-03-09 09:33:00,34.5,26.4,30.08,SE,140,10.5,12.8,72,0.00,,---,0.00,VWS V12.08,2013-03-09 15:33:00,
2013-03-09 09:38:00,34.5,26.4,30.08,SSE,148,12.3,13.6,72,0.00,,---,0.00,VWS V12.08,2013-03-09 15:38:00,
2013-03-09 09:43:00,34.5,26.8,30.08,SSE,148,12.3,15.4,73,0.00,,---,0.00,VWS V12.08,2013-03-09 15:43:00,
2013-03-09 09:48:00,34.7,26.3,30.08,SSE,152,11.0,13.2,71,0.00,,---,0.00,VWS V12.08,2013-03-09 15:48:00,
2013-03-09 09:53:00,34.7,26.3,30.08,SSE,151,11.0,15.4,71,0.00,,---,0.00,VWS V12.08,2013-03-09 15:53:00,
2013-03-09 09:58:00,34.7,26.6,30.08,SE,144,14.1,15.4,72,0.00,,---,0.00,VWS V12.08,2013-03-09 15:58:00,
2013-03-09 10:04:00,35.1,26.3,30.08,SSE,155,12.3,15.0,70,0.00,,---,0.00,VWS V12.08,2013-03-09 16:04:00,
2013-03-09 10:09:00,35.1,25.6,30.08,SSE,156,12.8,15.0,68,0.00,,---,0.00,VWS V12.08,2013-03-09 16:09:00,
2013-03-09 10:14:00,35.2,25.4,30.05,SSE,160,14.1,15.0,67,0.00,,---,0.00,VWS V12.08,2013-03-09 16:14:00,
2013-03-09 10:19:00,35.4,25.6,30.05,SSE,158,11.0,15.0,67,0.00,,---,0.00,VWS V12.08,2013-03-09 16:19:00,
2013-03-09 10:24:00,35.8,24.0,30.05,SSE,167,11.0,15.0,62,0.00,,---,0.00,VWS V12.08,2013-03-09 16:24:00,
2013-03-09 10:29:00,36.1,23.2,30.05,SSE,154,13.6,15.0,59,0.00,,---,0.00,VWS V12.08,2013-03-09 16:29:00,
2013-03-09 10:34:00,36.1,23.2,30.05,SSE,164,15.0,15.4,59,0.00,,---,0.00,VWS V12.08,2013-03-09 16:34:00,
2013-03-09 10:39:00,36.1,23.2,30.05,South,173,13.2,15.4,59,0.00,,---,0.00,VWS V12.08,2013-03-09 16:39:00,
2013-03-09 10:44:00,36.3,23.0,30.05,South,173,13.2,16.8,58,0.00,,---,0.00,VWS V12.08,2013-03-09 16:44:00,
2013-03-09 10:49:00,36.7,22.5,30.05,SSE,148,12.8,15.4,56,0.00,,---,0.00,VWS V12.08,2013-03-09 16:49:00,
2013-03-09 10:54:00,36.9,21.8,30.05,South,173,12.3,15.4,54,0.00,,---,0.00,VWS V12.08,2013-03-09 16:54:00,
2013-03-09 10:59:00,37.4,20.9,30.05,SSE,157,13.2,17.4,51,0.00,,---,0.00,VWS V12.08,2013-03-09 16:59:00,
2013-03-09 11:04:00,37.2,20.8,30.05,SSE,158,12.8,19.7,51,0.00,,---,0.00,VWS V12.08,2013-03-09 17:04:00,
2013-03-09 11:09:00,37.6,20.2,30.05,SSE,157,13.2,19.7,49,0.00,,---,0.00,VWS V12.08,2013-03-09 17:09:00,
2013-03-09 11:14:00,37.2,20.8,30.02,SSE,152,15.4,19.7,51,0.00,,---,0.00,VWS V12.08,2013-03-09 17:14:00,
2013-03-09 11:19:00,37.9,20.0,30.02,SW,215,12.8,14.1,48,0.00,,---,0.00,VWS V12.08,2013-03-09 17:19:00,
2013-03-09 11:24:00,38.3,19.4,30.02,SSE,149,13.2,16.8,46,0.00,,---,0.00,VWS V12.08,2013-03-09 17:24:00,
2013-03-09 11:29:00,38.7,19.7,30.02,SSE,167,10.1,17.0,46,0.00,,---,0.00,VWS V12.08,2013-03-09 17:29:00,
2013-03-09 11:34:00,38.7,19.7,30.02,SSE,160,18.3,18.3,46,0.00,,---,0.00,VWS V12.08,2013-03-09 17:34:00,
2013-03-09 11:39:00,38.8,19.3,30.02,South,175,16.3,18.3,45,0.00,,---,0.00,VWS V12.08,2013-03-09 17:39:00,
2013-03-09 11:44:00,38.8,19.3,30.02,South,170,8.1,18.3,45,0.00,,---,0.00,VWS V12.08,2013-03-09 17:44:00,
2013-03-09 11:49:00,39.2,19.1,30.02,SSE,168,11.0,14.1,44,0.00,,---,0.00,VWS V12.08,2013-03-09 17:49:00,
2013-03-09 11:54:00,39.4,18.2,30.02,South,180,13.2,17.4,42,0.00,,---,0.00,VWS V12.08,2013-03-09 17:54:00,
2013-03-09 11:59:00,39.2,16.9,30.02,South,181,16.8,18.8,40,0.00,,---,0.00,VWS V12.08,2013-03-09 17:59:00,
2013-03-09 12:04:00,39.2,16.9,30.02,SSE,155,14.5,15.9,40,0.00,,---,0.00,VWS V12.08,2013-03-09 18:04:00,
2013-03-09 12:09:00,39.4,17.1,30.02,SSE,164,10.5,15.9,40,0.00,,---,0.00,VWS V12.08,2013-03-09 18:09:00,
2013-03-09 12:14:00,39.4,17.1,30.02,SSE,167,10.1,15.9,40,0.00,,---,0.00,VWS V12.08,2013-03-09 18:14:00,
2013-03-09 12:19:00,39.4,17.1,30.02,South,177,12.3,15.4,40,0.00,,---,0.00,VWS V12.08,2013-03-09 18:19:00,
2013-03-09 12:24:00,39.2,16.9,30.02,South,181,11.0,17.4,40,0.00,,---,0.00,VWS V12.08,2013-03-09 18:24:00,
2013-03-09 12:29:00,39.0,16.2,29.99,SSE,165,15.4,17.4,39,0.00,,---,0.00,VWS V12.08,2013-03-09 18:29:00,
2013-03-09 12:34:00,39.6,16.1,29.99,South,182,15.4,21.0,38,0.00,,---,0.00,VWS V12.08,2013-03-09 18:34:00,
2013-03-09 12:39:00,39.4,16.5,29.99,South,171,11.0,21.0,39,0.00,,---,0.00,VWS V12.08,2013-03-09 18:39:00,
2013-03-09 12:44:00,39.0,16.2,29.99,SSE,162,17.9,21.0,39,0.00,,---,0.00,VWS V12.08,2013-03-09 18:44:00,
2013-03-09 12:49:00,38.8,16.0,29.99,South,178,13.2,18.8,39,0.00,,---,0.00,VWS V12.08,2013-03-09 18:49:00,
2013-03-09 12:54:00,39.0,16.2,29.99,SSE,157,20.6,20.6,39,0.00,,---,0.00,VWS V12.08,2013-03-09 18:54:00,
2013-03-09 12:59:00,38.5,16.3,29.96,SSE,165,17.9,22.8,40,0.00,,---,0.00,VWS V12.08,2013-03-09 18:59:00,
2013-03-09 13:04:00,38.3,16.7,29.96,South,184,15.4,20.6,41,0.00,,---,0.00,VWS V12.08,2013-03-09 19:04:00,
2013-03-09 13:09:00,38.5,17.4,29.96,South,176,20.6,20.6,42,0.00,,---,0.00,VWS V12.08,2013-03-09 19:09:00,
2013-03-09 13:14:00,38.1,17.1,29.96,South,175,17.4,20.6,42,0.00,,---,0.00,VWS V12.08,2013-03-09 19:14:00,
2013-03-09 13:19:00,38.5,17.4,29.96,SSE,152,13.6,20.1,42,0.00,,---,0.00,VWS V12.08,2013-03-09 19:19:00,
2013-03-09 13:24:00,38.3,17.2,29.96,SSE,161,12.8,20.1,42,0.00,,---,0.00,VWS V12.08,2013-03-09 19:24:00,
2013-03-09 13:29:00,38.1,17.6,29.96,South,169,13.2,20.1,43,0.00,,---,0.00,VWS V12.08,2013-03-09 19:29:00,
2013-03-09 13:34:00,38.1,17.1,29.96,SSE,160,19.2,19.7,42,0.00,,---,0.00,VWS V12.08,2013-03-09 19:34:00,
2013-03-09 13:40:00,38.3,17.8,29.96,SSE,152,15.4,19.7,43,0.00,,---,0.00,VWS V12.08,2013-03-09 19:40:00,
2013-03-09 13:45:00,37.9,17.5,29.93,SSE,164,17.0,19.7,43,0.00,,---,0.00,VWS V12.08,2013-03-09 19:45:00,
2013-03-09 13:50:00,37.9,18.0,29.93,SSE,154,10.5,15.9,44,0.00,,---,0.00,VWS V12.08,2013-03-09 19:50:00,
2013-03-09 13:55:00,37.9,17.5,29.93,South,177,15.9,17.9,43,0.00,,---,0.00,VWS V12.08,2013-03-09 19:55:00,
2013-03-09 14:00:00,38.1,18.1,29.93,SSE,164,12.3,17.9,44,0.00,,---,0.00,VWS V12.08,2013-03-09 20:00:00,
2013-03-09 14:05:00,37.8,18.3,29.93,SSE,163,15.4,19.7,45,0.00,,---,0.00,VWS V12.08,2013-03-09 20:05:00,
2013-03-09 14:10:00,37.6,18.2,29.93,SSE,163,11.9,19.7,45,0.00,,---,0.00,VWS V12.08,2013-03-09 20:10:00,
2013-03-09 14:15:00,37.6,18.2,29.93,SSE,163,15.0,19.7,45,0.00,,---,0.00,VWS V12.08,2013-03-09 20:15:00,
2013-03-09 14:20:00,37.8,18.3,29.93,South,173,11.0,15.4,45,0.00,,---,0.00,VWS V12.08,2013-03-09 20:20:00,
2013-03-09 14:25:00,37.6,17.7,29.93,South,173,11.0,17.4,44,0.00,,---,0.00,VWS V12.08,2013-03-09 20:25:00,
2013-03-09 14:30:00,37.8,18.3,29.93,SSE,164,10.1,17.4,45,0.00,,---,0.00,VWS V12.08,2013-03-09 20:30:00,
2013-03-09 14:35:00,37.6,18.2,29.93,SSE,165,12.8,15.0,45,0.00,,---,0.00,VWS V12.08,2013-03-09 20:35:00,
2013-03-09 14:40:00,37.4,18.0,29.93,SSE,165,15.0,17.0,45,0.00,,---,0.00,VWS V12.08,2013-03-09 20:40:00,
2013-03-09 14:45:00,37.4,18.0,29.93,SSE,165,11.0,17.0,45,0.00,,---,0.00,VWS V12.08,2013-03-09 20:45:00,
2013-03-09 14:50:00,37.4,18.5,29.93,SSE,167,15.9,17.4,46,0.00,,---,0.00,VWS V12.08,2013-03-09 20:50:00,
2013-03-09 14:55:00,37.2,18.9,29.93,SSE,156,12.8,19.7,47,0.00,,---,0.00,VWS V12.08,2013-03-09 20:55:00,
2013-03-09 15:00:00,37.0,19.2,29.90,South,175,15.0,19.7,48,0.00,,---,0.00,VWS V12.08,2013-03-09 21:00:00,
2013-03-09 15:05:00,37.0,19.7,29.90,SSE,153,12.8,18.3,49,0.00,,---,0.00,VWS V12.08,2013-03-09 21:05:00,
2013-03-09 15:10:00,36.9,20.0,29.90,South,174,13.6,18.8,50,0.00,,---,0.00,VWS V12.08,2013-03-09 21:10:00,
2013-03-09 15:15:00,36.9,20.4,29.90,South,174,13.2,18.8,51,0.00,,---,0.00,VWS V12.08,2013-03-09 21:15:00,
2013-03-09 15:20:00,36.7,20.3,29.90,South,183,13.2,17.4,51,0.00,,---,0.00,VWS V12.08,2013-03-09 21:20:00,
2013-03-09 15:25:00,36.5,20.6,29.90,South,171,15.4,17.4,52,0.00,,---,0.00,VWS V12.08,2013-03-09 21:25:00,
2013-03-09 15:30:00,36.5,21.5,29.90,SSE,164,13.2,17.4,54,0.00,,---,0.00,VWS V12.08,2013-03-09 21:30:00,
2013-03-09 15:35:00,36.3,21.7,29.90,South,170,10.5,13.2,55,0.00,,---,0.00,VWS V12.08,2013-03-09 21:35:00,
2013-03-09 15:40:00,36.3,22.6,29.90,SSE,159,8.1,15.0,57,0.00,,---,0.00,VWS V12.08,2013-03-09 21:40:00,
2013-03-09 15:45:00,36.3,22.6,29.90,South,173,10.5,15.0,57,0.00,,---,0.00,VWS V12.08,2013-03-09 21:45:00,
2013-03-09 15:50:00,36.1,23.2,29.90,SSE,161,11.0,12.8,59,0.00,,---,0.00,VWS V12.08,2013-03-09 21:50:00,
2013-03-09 15:55:00,36.1,23.2,29.90,South,181,11.9,13.6,59,0.00,,---,0.00,VWS V12.08,2013-03-09 21:55:00,
2013-03-09 16:00:00,36.3,23.0,29.90,SSE,158,12.8,13.6,58,0.00,,---,0.00,VWS V12.08,2013-03-09 22:00:00,
2013-03-09 16:05:00,36.3,22.6,29.90,South,184,11.4,15.0,57,0.00,,---,0.00,VWS V12.08,2013-03-09 22:05:00,
2013-03-09 16:10:00,36.3,22.6,29.90,SSE,155,10.5,15.4,57,0.00,,---,0.00,VWS V12.08,2013-03-09 22:10:00,
2013-03-09 16:15:00,36.3,22.1,29.87,SSE,157,13.2,15.9,56,0.00,,---,0.00,VWS V12.08,2013-03-09 22:15:00,
2013-03-09 16:20:00,36.3,22.1,29.87,South,171,10.5,13.2,56,0.00,,---,0.00,VWS V12.08,2013-03-09 22:20:00,
2013-03-09 16:25:00,36.3,22.1,29.87,SSE,159,12.3,15.0,56,0.00,,---,0.00,VWS V12.08,2013-03-09 22:25:00,
2013-03-09 16:30:00,36.3,22.1,29.87,SSE,162,10.5,15.0,56,0.00,,---,0.00,VWS V12.08,2013-03-09 22:30:00,
2013-03-09 16:35:00,36.5,22.3,29.87,SSE,166,10.5,13.2,56,0.00,,---,0.00,VWS V12.08,2013-03-09 22:35:00,
2013-03-09 16:37:00,36.7,22.5,29.87,SSE,163,8.3,16.8,56,0.00,,---,0.00,VWS V12.08,2013-03-09 22:37:00,
2013-03-09 16:40:00,36.7,22.5,29.87,SSE,163,8.3,16.8,56,0.00,,---,0.00,VWS V12.08,2013-03-09 22:40:00,
2013-03-09 16:45:00,36.7,22.5,29.87,SSE,163,8.3,16.8,56,0.00,,---,0.00,VWS V12.08,2013-03-09 22:45:00,
2013-03-09 17:35:00,36.7,22.5,29.87,SSE,163,8.3,16.8,56,0.00,,---,0.00,VWS V12.08,2013-03-09 23:35:00,
2013-03-09 17:40:00,36.7,22.5,29.87,SSE,163,8.3,16.8,56,0.00,,---,0.00,VWS V12.08,2013-03-09 23:40:00,